Kezdőlap
METAR-TAF:

METAR-TAF

Repülőterek :

Marshalltown Municipal Airport

Marshalltown, Iowa, Amerikai Egyesült Államok

földrajzi szélesség: 42-06-38N, földrajzi hosszúság: 092-54-58W, magasság: 296 m

Jelenlegi meteorológiai megfigyelések

A jelentés 1 órával és 5 perccel ezelõtt készült, 10:53 UTC
Szélcsend
Hőmérséklet 8°C
Páratartalom 76%
Légköri nyomás 1016 hPa
Látótávolság: 16.1 km
Kevés felhő 11000 lábon

METAR: KMIW 171053Z AUTO 00000KT 10SM FEW110 08/04 A3000 RMK AO2 SLP155 T00830044 $

Idő: 06:58 (11:58 UTC)


TAF: hiányzik

Meteorológiai megfigyelések és előrejelzések több, mint 4000 repülőtéren (METAR és TAF jelentéseket).

A térképen piros és sárga pontok jelzik az elérhető meteorológiai állomásokat.

Mozgassa az egeret a pont fölött, hogy megjelenjen az állomás neve.

Azután kattintson az időjárási megfigyelések és előrejelzések megtekintéséhez.

A térkép megváltoztatása: kattintson a fekete keresztel jelölt zöld gombra ráközelítéshez, a vonallal jelölt zöld gombra távolításhoz, vagy a zöld nyilakra a szomszédos térképek eléréséhez.


METAR-TAF: